Regional Weather Roundup
Issued by NWS Charleston, SC

Current Version | Previous Version | Graphics & Text | Print | Product List | Glossary On
Versions: 1 2 3 4 5 6 7 8 9 10 11 12 13 14 15 16 17 18 19 20 21 22 23 24 25 26 27 28 29 30 31 32 33 34 35 36 37 38 39 40 41 42 43 44 45 46 47 48 49 50
000
ASUS42 KCHS 292126
RWRCHS

REGIONAL WEATHER ROUNDUP
NATIONAL WEATHER SERVICE CHARLESTON SC
500 PM EDT SUN MAR 29 2015

NOTE: "FAIR" INDICATES FEW OR NO CLOUDS BELOW 12,000 FEET WITH NO
SIGNIFICANT WEATHER AND/OR OBSTRUCTIONS TO VISIBILITY.

NOT ALL STATIONS ARE QUALITY CONTROLLED BY THE NATIONAL
WEATHER SERVICE. USE DATA WITH CAUTION...ESPECIALLY
DEWPOINT OBSERVATIONS.

SCZ027-030-031-034>040-042>050-292200-
...SOUTHEAST SOUTH CAROLINA...

CITY           SKY/WX    TMP DP  RH WIND       PRES   REMARKS
N CHARLESTON   MOSUNNY   57  13  17 E5        30.35S
WATERFRONT PRK NOT AVBL
MOUNT PLEASANT FAIR      52  32  46 S9        30.35F
PINOPOLIS        N/A     54  19  26 N6        30.27F
MONCKS CORNER  FAIR      55  12  18 NW5       30.35S
SUMMERVILLE    FAIR      59  18  20 CALM      30.35F
BEAUFORT MCAS  SUNNY     58  20  22 SE6       30.35F
BEAUFORT ARPT  FAIR      54  34  47 S5        30.35S
HILTON HEAD IS SUNNY     54  30  40 E7        30.37S
WALTERBORO     CLEAR     55  16  21 E3        30.34F
ALLENDALE      FAIR      57  16  19 CALM      30.32F

...SOUTHERN MIDLANDS AND PEE DEE...

CITY           SKY/WX    TMP DP  RH WIND       PRES   REMARKS
GEORGETOWN     NOT AVBL
KINGSTREE      NOT AVBL
ORANGEBURG     SUNNY     57  14  18 CALM      30.33F
BARNWELL       FAIR      57  14  18 NE3       30.33F
AIKEN          FAIR      55   9  15 E6        30.33F
MANNING        RAIN      54   9  16 CALM      30.34F
COLUMBIA       MOSUNNY   57   9  14 CALM      30.32F
SUMTER         SUNNY     55   8  15 VRB3      30.31F
FLORENCE       SUNNY     54   9  16 VRB5      30.34F
MYRTLE BEACH   SUNNY     52  25  35 S10       30.38F
N MYRTLE BEACH SUNNY     50  27  40 S12       30.36F

$$

GAZ063-065-086>088-099>101-113>116-118-119-134>141-150-292200-
...SOUTHEAST GEORGIA...

CITY           SKY/WX    TMP DP  RH WIND       PRES   REMARKS
SAVANNAH ARPT  SUNNY     59  21  23 E8        30.33F
HUNTER AAF     SUNNY     56  30  37 E10       30.32F
FORT STEWART   SUNNY     60  31  32 SE10      30.31S
STATESBORO     SUNNY     60  23  23 W3        30.32F
SYLVANIA       CLEAR     59  23  24 S3        30.32F
CLAXTON        FAIR      61  27  27 CALM      30.32S

...CSRA...CENTRAL AND FAR SOUTHEAST GEORGIA...

CITY           SKY/WX    TMP DP  RH WIND       PRES   REMARKS
THOMSON        SUNNY     61  22  22 CALM      30.34F
AUGUSTA-BUSH   SUNNY     59  12  15 CALM      30.32F
AUGUSTA-DANIEL SUNNY     57   9  14 CALM      30.32F
SWAINSBORO     FAIR     N/A N/A N/A CALM      30.32F
VIDALIA        SUNNY     61  25  25 CALM      30.32F
EASTMAN        FAIR      63  22  20 S5        30.33F
HAZLEHURST     FAIR      63  23  22 N3        30.31S
ALMA           SUNNY     61  23  23 SW3       30.32F
WAYCROSS       SUNNY     66  29  24 CALM      30.31F
JESUP          FAIR      64  32  29 SE7       30.32S
BAXLEY         FAIR      63  23  22 SW3       30.32R
BRUNSWICK      SUNNY     57  28  33 E8        30.36S
SAINT SIMONS   SUNNY     55  33  43 E10       30.36F

$$

SCZ027-028-034-036>038-045-046-048>050-GAZ119-141-292200-
...LAKE AND SUPPLEMENTAL COASTAL OBSERVATIONS...

STATION/POSITION TIME  TEMP    WIND        PRES    WAVE   SWELL
                       AIR SEA DIR/SP/G            HT/PER HT/PER/DIR
                 (UTC) (F)     (DEG/KT/KT) (MB)    (FT/S) (FT/S/D)
UPR LAKE MARION  NOT AVBL
WINYAH BAY       2000   47     110/  8     1027.0F
LAKE MURRAY      2100   54     260/  2/  3 1026.1F
ACE BASIN NERRS  2000   55     160/  3     1027.0F
FORT PULASKI     2100   51 59   80/ 10/ 12 1028.2F
SAPELO ISLAND    2100   55      80/  9     1028.0S

$$

ANZ835-935-AMZ111-154-330-350-352-354-370-450-454-472-292200-
...C-MAN AND BUOY OBSERVATIONS...

STATION/POSITION TIME  TEMP    WIND        PRES    WAVE   SWELL
                       AIR SEA DIR/SP/G            HT/PER HT/PER/DIR
                 (UTC) (F)     (DEG/KT/KT) (MB)    (FT/S) (FT/S/D)
BUOY 41004       2050   48 68   30/ 10/ 14 1027.7F   4/ 7   3/ 7
BUOY 41008       2050   51 61   50/ 12/ 16 1027.3F   4/ 6   3/ 60/ 6
FOLLY BEACH CMAN 2100   49     120/  5/  7 1028.1F
CAPERS NEARSHORE NOT AVBL
FRIPP NEARSHORE  2000   51     110/  6/  8 1027.4F


STATION/POSITION TIME  TEMP    WIND        PRES    WAVE   SWELL
                       AIR SEA DIR/SP/G            HT/PER HT/PER/DIR
                 (UTC) (F)     (DEG/KT/KT) (MB)    (FT/S) (FT/S/D)
5E ST. MARYS GA  2021      60                N/A     4/ 6
FRYING PAN BUOY  2050   44 65  310/  4/  8 1029.5R   3/ 7   3/ 50/ 7
BUOY 41025       NOT AVBL
CAPE LOOKOUT NC  2100   47     280/  7/  8 1026.8F
BUOY 41002       2050   53 68  330/ 19/ 23 1025.4F   8/ 7
BUOY 41010       2020   64 76  360/  8/ 14 1025.8F
ST AUGUSTINE FL  2100   56 62   10/  6/  7 1028.2F


$$


USA.gov is the U.S. government's official web portal to all federal, state and local government web resources and services.